Regional Weather Roundup
Issued by NWS Sterling, VA

Home | Current Version | Previous Version | Graphics & Text | Print | Product List | Glossary On
Versions: 1 2 3 4 5 6 7 8 9 10 11 12 13 14 15 16 17 18 19 20 21 22 23 24 25 26 27 28 29 30 31 32 33 34 35 36 37 38 39 40 41 42 43 44 45 46 47 48 49 50
000
ASUS41 KLWX 170910
RWRLWX

REGIONAL WEATHER ROUNDUP
NATIONAL WEATHER SERVICE BALTIMORE MD/WASHINGTON DC
400 AM EST WED DEC 17 2014

Note: "FAIR" indicates few or no clouds below 12,000 feet
with no significant weather and/or obstructions to visibility.
 TC=TEMPERATURE CELSIUS

 * =Non NWS site. Station does not report precipitation (e.g. rain,
    snow, etc.), thunder, or fog.

DCZ001-MDZ009-015-VAZ040>042-051-053>054-171000-
WASHINGTON METRO

CITY           SKY/WX    TMP DP  RH WIND       PRES   REMARKS
WASHINGTON NAT CLEAR     43  39  86 S5        29.94S FOG
DULLES         CLEAR     36  35  96 SW3       29.93S FOG
ANDREWS AFB    MOCLDY    41  41  99 W6        29.92S FOG
FT BELVOIR     CLOUDY    43  41  93 SW1       29.94S FOG
QUANTICO       CLOUDY    43  40  89 W5        29.95F FOG
COLLEGE PARK*  PTCLDY    41  41 100 CALM      29.92S
LEESBURG*      CLEAR     45  45 100 NW10G20   29.93S
MANASSAS*      CLOUDY    39  39 100 CALM      29.94S VSB 1/4
GAITHERSBURG*  CLOUDY    37  36  93 CALM      29.95S VSB 1/2

$$

MDZ006>007-011-014-171000-
BALTIMORE METRO

CITY           SKY/WX    TMP DP  RH WIND       PRES   REMARKS
BWI AIRPORT    PTCLDY    40  38  93 W6        29.91R
MD SCIENCE CTR   N/A     40  39  97 MISG      29.91R
MARTIN STATE   FOG       37  37 100 CALM      29.91F VSB 1/4
ANNAPOLIS      CLEAR     41  39  93 NW3       29.91S FOG
FORT MEADE*      N/A     34  32  93 CALM      29.94R

$$

MDZ012-015-019>023-171000-
MARYLAND EASTERN SHORE

CITY           SKY/WX    TMP DP  RH WIND       PRES   REMARKS
OCEAN CITY     CLEAR     45  43  93 NW7       29.89R FOG
SALISBURY      CLEAR     46  42  86 W7        29.90S FOG
BAY BRIDGE AP*   N/A     41  41 100 W3        29.91F
CAMBRIDGE*     CLEAR     45  41  87 W5        29.91R
EASTON*        CLEAR     44  44 100 NW5       29.94S

$$

MDZ017>025-171000-
SOUTHERN MARYLAND

CITY           SKY/WX    TMP DP  RH WIND       PRES   REMARKS
PATUXENT RIVER CLEAR     41  40  96 NW3       29.93R FOG
ST INIGOES     CLOUDY    45  41  86 W9        29.93R FOG
LEONARDTOWN*   CLOUDY    43  41  93 W9        29.94S

$$

MDZ003>005-171000-
NORTH CENTRAL MARYLAND

CITY           SKY/WX    TMP DP  RH WIND       PRES   REMARKS
FREDERICK*     CLEAR     41  36  81 S5        29.95R
HAGERSTOWN APT CLOUDY    45  39  79 SW7       29.90F
WESTMINSTER*   MOCLDY    43  39  87 W6        29.89S

$$

MDZ501>502-171000-
WESTERN MARYLAND

CITY           SKY/WX    TMP DP  RH WIND       PRES   REMARKS
OAKLAND*       FOG       34 N/A N/A W17G28    29.91S VSB 1/4 WCI  23
CUMBERLAND*    MOCLDY    46  37  71 SW8       29.98S

$$

VAZ025>031-171000-
SHENANDOAH VALLEY

CITY           SKY/WX    TMP DP  RH WIND       PRES   REMARKS
WINCHESTER*    CLOUDY    46  34  61 W7        29.93S
FRONT ROYAL*   CLOUDY    45  37  76 CALM      29.92S
LURAY*         PTSUNNY   46  37  71 S7        29.94R
NEW MARKET*    PTSUNNY   38  36  91 CALM      29.94S
STAUNTON*      PTCLDY    43  35  72 CALM      29.96S
WAYNESBORO*    FAIR      41  35  77 CALM      29.95S

$$

WVZ021-048>050-054>055-171000-
EASTERN WEST VIRGINIA PANHANDLE

CITY           SKY/WX    TMP DP  RH WIND       PRES   REMARKS
MARTINSBURG    CLOUDY    48  36  63 W9        29.93R
PETERSBURG*    CLOUDY    44  37  75 CALM      29.95F

$$

VAZ036>039-050-171000-
CENTRAL FOOTHILLS

CITY           SKY/WX    TMP DP  RH WIND       PRES   REMARKS
CHARLOTTESVILL CLEAR     43  36  76 S5        29.94S
CULPEPER*      FOG       39  39 100 CALM      29.95S VSB 1/4
ORANGE*        FOG       34  34 100 CALM      29.96S VSB 1/2
GORDONSVILLE*  FAIR      32  32 100 CALM      29.94S FOG
WARRENTON*     FOG       41  41 100 CALM      29.93F VSB 1/4

$$

VAZ055>057-171000-
NORTH AND CENTRAL PIEDMONT

CITY           SKY/WX    TMP DP  RH WIND       PRES   REMARKS
FREDERICKSBRG* CLOUDY    44  44 100 CALM      29.94F FOG
STAFFORD*      CLOUDY    42  42 100 CALM      29.98F FOG

$$

NCZ024-NYZ072-PAZ021-071-VAZ022-071-171000-
OTHER REGIONAL OBSERVATIONS

CITY           SKY/WX    TMP DP  RH WIND       PRES   REMARKS
NEW YORK CITY  CLOUDY    45  42  89 CALM      29.84S FOG
PHILADELPHIA   PTCLDY    42  39  89 W7        29.87S
PITTSBURGH     CLOUDY    39  36  89 W12       29.95S
ROANOKE        MOCLDY    47  36  65 W21G26    30.01S
RICHMOND       CLEAR     43  40  89 W6        29.95S FOG
RALEIGH        CLEAR     44  37  76 W3        30.03R

$$

ANZ530>537-171000-
MARINE OBSERVATIONS

STATION/POSITION TIME  TEMP    WIND        PRES
                       AIR SEA DIR/SP/G
                 (UTC) (F)     (DEG/KT/KT) (MB)
THOMAS PT LIGHT  0900   43 42  280/ 10/ 11 1014.2R
BALT KEY BRIDGE  0900   44     240/  6/  7 1012.4S
COVE POINT       0900   44     300/  5/  6 1013.2R
LEWISETTA        0900   46 44  290/  4/  5 1013.3F
SOLOMONS ISLAND  0900      44                N/A
PINEY POINT      0900          320/ 13/ 13   N/A

$$



USA.gov is the U.S. government's official web portal to all federal, state and local government web resources and services.